Location: Oroua River
(40.4333°S, 175.4333°E)
Time: 13:50:18
(UTC+00:00)

Cosmos 1943 Rocket - Pass Details

Date: 03 February 2023
Orbit: 811 x 844 km, 71.0° (Epoch: 22 March)

Event Time Altitude Azimuth Distance (km) Brightness Sun altitude
Exits shadow 12:45:13 48° 193° (SSW) 1,073 2.9 -33.0°
Drops below altitude 10° 12:49:28 10° 163° (SSE) 2,436 5.4 -32.9°
Sets 12:51:57 0° 159° (SSE) 3,372 6.3 -32.9°
